Wind_Speed
25 28 31 32 31 32 34 30 26 25 22 18 21 24 23 18 23 21 15 9 11 9 11 11 10 9 8 8 9 11 11 16 19 21 23 25 25 25 23 22 24 25 28
25 30 32 32 33 34 29 27 24 21 16 17 21 24 19 17 18 16 9 8 7 7 9 11 12 13 16 17 17 17 16 17 17 19 22 26 29 27 25 24 24 26 25
25 29 32 33 34 29 26 25 21 15 17 18 23 22 14 14 14 8 9 5 7 6 8 9 13 16 18 22 23 24 24 23 24 25 28 32 33 29 30 26 25 26 23
25 28 31 31 29 26 25 20 14 14 16 21 22 14 8 11 9 8 9 9 9 6 6 9 13 15 17 22 23 27 28 31 33 34 33 35 35 37 37 31 26 26 21
25 27 29 29 27 24 18 13 10 15 19 21 16 8 7 4 6 12 11 10 10 9 17 20 18 18 19 21 26 30 26 26 25 27 33 35 36 36 33 26 24 16 23
22 25 27 26 23 15 9 6 9 12 13 14 6 5 3 6 11 13 17 22 19 22 26 26 25 24 25 27 32 29 23 26 31 33 21 22 30 31 29 28 23 21 27
20 24 26 21 13 8 5 5 6 8 9 2 8 2 6 17 16 21 23 24 23 31 38 39 39 41 37 32 31 31 25 28 28 28 37 34 26 26 25 22 25 22 19
21 25 21 14 9 6 4 3 3 4 2 10 8 10 26 25 20 23 27 28 27 34 37 40 40 41 38 40 41 42 39 36 33 39 35 31 25 25 24 21 18 15 13
21 21 16 11 8 4 2 2 4 3 5 12 8 21 30 27 25 29 31 33 35 35 33 34 32 32 33 33 35 35 36 37 37 34 28 25 23 21 19 17 14 12 8
20 16 13 10 6 4 2 1 4 2 16 16 9 29 31 27 27 25 31 31 30 28 29 29 28 26 25 26 31 34 33 32 28 28 26 22 18 17 13 12 7 2 2
15 13 11 7 2 2 3 1 2 6 21 15 19 31 30 27 30 29 28 26 28 27 29 27 26 27 23 21 24 20 22 24 23 22 21 16 11 8 3 4 1 6 8
12 10 8 5 4 5 2 3 4 14 19 12 18 31 31 22 28 27 25 29 28 28 26 23 23 25 24 23 23 22 22 20 16 14 9 5 2 1 6 3 5 5 8
10 7 7 3 3 3 2 4 4 16 19 12 18 28 29 28 19 27 21 20 20 22 16 17 19 16 18 17 15 15 12 7 7 4 1 2 2 6 5 4 6 7 8
10 6 5 3 0 2 1 3 5 17 23 20 14 26 26 27 25 18 19 12 21 19 23 21 14 13 12 9 8 6 8 4 2 3 3 8 8 8 6 7 7 7 4
8 4 3 4 3 4 3 5 7 20 25 24 16 16 21 21 32 22 21 15 19 18 15 17 16 14 12 8 6 6 7 6 7 8 9 10 9 9 8 7 8 9 13
8 7 3 3 5 7 4 6 7 17 26 23 22 14 18 23 20 22 20 19 19 18 17 18 17 16 15 12 11 13 11 10 10 10 11 9 9 8 9 10 11 14 12
8 5 6 6 4 5 7 7 6 12 23 23 23 21 16 16 18 18 19 24 21 19 17 16 17 15 15 16 15 13 11 11 12 11 13 12 13 10 11 13 17 14 15
8 7 5 5 7 7 6 6 7 6 11 19 24 23 20 19 18 18 16 18 19 17 15 13 12 14 13 12 12 14 14 14 16 15 13 13 16 13 9 13 17 12 11
6 6 7 5 7 10 11 9 7 6 6 8 10 18 25 24 19 22 21 18 17 15 15 15 16 17 16 15 16 17 17 18 15 15 14 15 16 16 13 16 16 15 10
6 4 3 5 5 6 7 10 10 9 6 5 9 9 10 16 24 24 20 21 18 18 18 17 18 19 20 24 22 21 19 16 16 17 18 17 16 17 20 24 24 22 20
11 7 2 1 4 5 7 9 11 11 9 7 4 6 10 13 14 16 17 19 20 20 19 18 19 18 17 17 16 17 18 18 17 15 15 15 14 15 17 24 26 27 26
14 12 11 8 6 5 4 3 2 3 5 6 8 7 5 6 10 12 14 14 14 14 14 13 13 14 14 15 16 16 15 14 14 13 13 14 15 14 14 16 22 27 29
21 21 17 13 13 12 11 8 6 4 4 4 3 8 10 11 11 10 10 10 10 9 8 7 7 8 9 9 10 13 14 12 11 9 10 12 14 17 21 24 27 29 32
27 25 24 23 18 16 14 12 11 9 7 7 7 6 6 15 17 17 15 14 12 10 7 4 3 5 6 8 9 8 9 14 17 16 15 17 18 21 24 27 31 35 36
33 28 28 28 28 23 20 18 18 19 18 16 14 12 11 11 15 16 17 17 16 15 13 11 11 12 12 14 15 16 18 20 23 24 25 25 27 28 31 33 34 35 38
39 35 32 31 29 31 29 26 24 23 23 24 24 23 22 21 19 19 20 22 23 23 24 25 25 24 24 25 26 27 27 28 29 30 30 32 34 34 35 38 38 37 37
Wind_Direction
292 300 300 302 299 301 302 301 299 296 289 295 300 310 319 306 316 320 338 338 325 346 4 38 65 78 93 110 131 144 161 173 181 186 192 194 188 185 175 174 174 180 183
295 301 302 302 303 305 301 300 296 291 283 289 306 316 316 309 321 343 30 5 11 29 40 75 84 86 89 92 102 113 133 148 162 165 167 166 161 159 156 155 153 156 166
305 301 301 305 306 303 301 297 292 278 285 303 305 308 296 309 339 4 9 25 77 52 51 92 88 84 91 95 93 100 106 112 122 133 146 150 143 139 136 136 152 158 153
305 300 304 305 306 301 294 287 274 270 287 305 305 291 279 321 347 31 63 69 73 58 88 105 93 92 104 105 101 99 98 103 112 119 124 127 128 133 137 135 154 154 139
301 304 305 306 303 295 290 276 259 274 284 305 296 224 281 339 67 87 76 68 83 104 101 98 90 98 119 122 114 115 107 107 120 122 131 133 136 148 151 146 146 151 138
304 304 307 305 298 293 290 268 271 293 307 306 194 191 359 127 97 94 96 94 86 92 97 99 102 111 115 118 120 117 107 110 133 133 143 141 144 149 158 157 161 159 141
312 311 311 301 303 304 307 304 305 311 312 198 157 170 101 116 107 116 112 105 102 92 101 96 97 96 96 106 118 119 109 112 125 135 125 123 121 121 126 139 137 124 112
318 316 313 302 313 312 329 329 305 301 298 162 186 101 124 121 109 121 112 106 104 110 107 98 98 98 96 98 104 107 105 106 122 126 118 114 120 127 114 121 132 122 125
321 321 308 309 321 291 269 163 291 273 183 168 185 132 124 125 126 121 116 112 109 112 114 106 101 105 104 107 110 109 111 112 116 126 113 109 107 109 112 125 125 123 106
324 319 314 318 320 248 188 44 292 254 167 177 118 141 123 129 137 134 128 122 118 117 118 118 109 106 102 108 109 115 115 113 114 119 123 124 123 125 115 124 130 112 302
325 334 331 349 348 205 111 320 317 160 169 186 116 135 134 135 139 134 134 126 125 124 129 130 132 133 126 120 118 116 119 117 118 119 117 118 125 136 87 37 342 307 290
335 334 351 35 76 100 96 118 53 166 173 169 137 139 142 137 146 139 148 137 131 132 132 123 122 123 124 129 129 127 136 143 131 130 104 54 70 331 316 276 260 309 325
349 342 5 55 123 94 112 110 82 169 167 157 135 149 153 145 139 153 137 144 133 153 140 146 139 142 141 148 151 150 151 153 158 156 277 148 238 209 220 251 316 311 313
2 2 9 48 103 105 92 109 145 171 163 167 167 150 155 164 156 160 159 147 164 157 158 159 161 162 171 172 182 221 218 261 251 209 200 195 211 222 234 255 283 295 242
18 2 25 65 124 142 128 95 138 172 169 165 179 163 158 166 179 179 174 188 167 173 184 190 195 192 202 215 239 255 285 258 236 218 209 220 242 245 237 236 268 219 183
33 23 31 76 107 140 141 110 133 165 175 172 178 179 172 180 181 184 190 196 203 214 211 217 234 228 244 259 265 269 238 227 235 241 236 242 241 232 238 249 217 184 210
66 32 27 55 97 117 147 146 123 166 181 186 183 189 172 178 187 190 199 210 218 216 226 227 231 238 236 246 237 239 239 251 251 251 252 243 238 232 248 226 204 218 233
113 87 69 61 72 97 106 125 140 156 169 194 202 205 201 200 193 189 194 195 200 209 217 219 220 217 232 243 243 246 255 262 266 256 242 233 231 229 234 209 201 220 236
168 137 101 90 92 93 97 106 120 150 172 167 195 209 211 212 207 204 208 209 217 214 217 231 234 235 241 246 248 251 264 270 253 239 248 255 244 231 241 221 205 222 246
192 164 177 131 127 122 103 99 98 101 120 169 188 197 197 208 215 218 222 221 226 233 234 241 233 236 249 254 253 252 259 251 256 262 265 266 259 246 238 229 229 234 255
211 192 187 239 211 144 128 116 106 98 112 126 138 194 203 205 211 217 226 233 238 238 241 241 243 246 249 248 249 255 260 262 264 266 264 261 253 248 237 227 239 252 262
232 211 206 209 217 203 189 168 153 121 118 127 154 159 176 201 206 209 210 213 216 222 229 236 243 247 251 254 257 260 262 264 263 256 257 261 254 243 241 255 252 251 262
221 238 233 221 224 228 225 217 218 235 270 273 184 182 177 176 178 181 187 187 190 196 206 219 231 241 247 247 250 254 249 240 220 234 255 263 262 257 253 255 256 258 271
223 234 242 237 235 237 243 254 255 251 252 253 263 266 234 198 186 185 182 183 179 178 180 192 243 277 275 266 269 270 247 227 227 244 257 258 266 267 267 267 268 272 278
222 226 235 237 238 240 240 243 250 257 253 248 252 258 259 249 240 238 237 241 244 253 250 237 242 257 266 270 271 268 262 259 263 269 275 276 274 273 271 273 276 279 286
219 219 225 234 238 237 242 250 255 258 258 258 256 255 256 256 252 248 248 252 257 262 269 276 278 274 272 275 278 278 278 278 276 277 281 286 287 288 288 288 291 289 288
Height
10642 10638 10635 10632 10629 10626 10622 10617 10614 10612 10610 10608 10608 10605 10599 10596 10594 10590 10586 10585 10584 10582 10580 10577 10573 10571 10569 10568 10569 10570 10574 10578 10583 10589 10596 10604 10611 10620 10628 10634 10641 10649 10656
10635 10631 10627 10625 10621 10617 10614 10611 10608 10606 10605 10605 10603 10599 10597 10595 10593 10589 10587 10586 10585 10583 10581 10579 10577 10575 10573 10572 10572 10572 10575 10578 10582 10588 10594 10603 10611 10620 10629 10637 10644 10651 10657
10628 10624 10621 10618 10614 10610 10607 10604 10602 10601 10601 10601 10599 10597 10595 10594 10592 10591 10588 10587 10586 10585 10583 10582 10581 10580 10579 10578 10579 10578 10579 10583 10586 10590 10598 10606 10615 10624 10633 10640 10647 10654 10660
10623 10620 10616 10612 10608 10605 10601 10599 10598 10598 10598 10598 10596 10594 10594 10594 10593 10592 10589 10588 10587 10586 10585 10585 10585 10585 10585 10585 10586 10586 10589 10591 10596 10600 10606 10613 10622 10629 10636 10643 10648 10655 10661
10618 10615 10611 10607 10604 10601 10597 10596 10596 10596 10596 10594 10592 10592 10594 10594 10594 10593 10592 10590 10588 10588 10588 10588 10588 10587 10590 10593 10593 10595 10598 10602 10606 10610 10616 10621 10628 10634 10640 10646 10652 10656 10663
10614 10610 10606 10602 10599 10596 10594 10594 10594 10594 10593 10590 10589 10592 10594 10594 10595 10595 10596 10595 10593 10594 10594 10592 10591 10592 10595 10599 10600 10605 10608 10612 10615 10619 10623 10630 10634 10640 10645 10650 10656 10662 10667
10608 10604 10600 10597 10594 10592 10591 10591 10591 10591 10590 10589 10590 10592 10594 10596 10597 10598 10600 10600 10600 10601 10601 10600 10600 10601 10603 10604 10607 10611 10616 10621 10624 10629 10634 10640 10645 10649 10652 10658 10664 10668 10670
10602 10599 10595 10592 10590 10588 10588 10588 10589 10589 10589 10590 10592 10595 10596 10598 10601 10603 10604 10606 10606 10607 10609 10609 10610 10611 10613 10615 10617 10620 10625 10629 10633 10639 10644 10649 10654 10657 10660 10664 10667 10670 10672
10598 10594 10591 10589 10587 10586 10586 10588 10588 10589 10589 10592 10593 10597 10596 10601 10605 10609 10610 10612 10613 10614 10616 10618 10620 10621 10623 10626 10629 10631 10634 10638 10641 10646 10651 10655 10659 10662 10665 10667 10669 10671 10673
10595 10591 10588 10585 10584 10584 10586 10587 10587 10588 10589 10593 10596 10600 10600 10605 10609 10613 10615 10616 10619 10621 10623 10626 10628 10630 10634 10636 10638 10641 10643 10645 10649 10651 10655 10659 10663 10666 10668 10669 10670 10671 10673
10593 10588 10586 10583 10582 10584 10586 10587 10588 10588 10590 10594 10599 10601 10605 10608 10613 10617 10619 10621 10624 10627 10629 10631 10633 10636 10639 10642 10645 10648 10650 10651 10654 10657 10659 10662 10664 10666 10667 10669 10670 10670 10671
10590 10588 10586 10583 10583 10585 10586 10588 10588 10588 10592 10596 10601 10604 10608 10612 10615 10619 10623 10625 10628 10632 10635 10637 10640 10642 10645 10647 10649 10652 10654 10656 10657 10659 10661 10662 10664 10665 10666 10666 10667 10668 10669
10589 10588 10585 10584 10584 10586 10587 10588 10589 10591 10594 10597 10603 10607 10612 10616 10620 10624 10626 10629 10632 10636 10639 10641 10643 10646 10648 10651 10652 10654 10656 10657 10658 10660 10661 10661 10663 10663 10664 10664 10665 10665 10666
10589 10589 10587 10585 10584 10586 10588 10588 10590 10592 10596 10600 10603 10609 10613 10618 10622 10626 10629 10632 10634 10638 10641 10644 10646 10648 10650 10652 10653 10654 10655 10656 10657 10657 10658 10660 10661 10662 10663 10663 10663 10664 10665
10591 10590 10588 10586 10585 10587 10589 10589 10590 10592 10596 10601 10604 10608 10614 10619 10622 10626 10629 10632 10635 10638 10641 10643 10646 10648 10649 10650 10652 10653 10653 10654 10654 10655 10656 10657 10658 10658 10659 10661 10661 10662 10664
10591 10591 10590 10589 10587 10587 10590 10591 10592 10594 10598 10602 10606 10609 10613 10617 10621 10626 10628 10631 10633 10636 10639 10641 10643 10645 10647 10648 10649 10650 10651 10652 10653 10653 10654 10655 10655 10656 10656 10657 10659 10661 10662
10591 10592 10592 10591 10590 10590 10591 10592 10594 10596 10599 10603 10607 10610 10614 10616 10619 10623 10626 10629 10631 10634 10636 10638 10640 10641 10643 10646 10647 10648 10649 10650 10650 10650 10651 10651 10651 10652 10653 10653 10656 10658 10659
10590 10591 10593 10593 10593 10592 10593 10594 10595 10598 10600 10602 10606 10609 10612 10616 10619 10621 10624 10626 10628 10631 10633 10635 10637 10639 10641 10643 10644 10645 10647 10647 10647 10647 10647 10648 10648 10649 10650 10651 10653 10655 10655
10592 10592 10593 10595 10595 10596 10596 10596 10597 10599 10601 10603 10605 10607 10609 10613 10616 10619 10622 10624 10627 10629 10631 10633 10635 10637 10639 10640 10641 10642 10643 10643 10643 10643 10644 10644 10645 10646 10647 10648 10649 10651 10652
10592 10593 10595 10596 10597 10597 10598 10598 10599 10601 10602 10604 10605 10607 10608 10610 10613 10616 10619 10622 10624 10626 10628 10630 10631 10633 10634 10635 10636 10637 10637 10637 10638 10638 10639 10639 10640 10641 10642 10644 10646 10647 10647
10590 10592 10595 10597 10598 10598 10599 10599 10600 10601 10603 10604 10606 10607 10608 10608 10610 10613 10615 10618 10620 10622 10624 10625 10626 10628 10629 10630 10631 10632 10633 10633 10634 10634 10634 10634 10635 10636 10637 10639 10642 10643 10643
10587 10590 10592 10595 10598 10599 10599 10600 10601 10602 10603 10604 10604 10605 10606 10608 10610 10611 10612 10614 10615 10617 10618 10620 10621 10623 10624 10625 10626 10627 10628 10629 10630 10630 10629 10629 10630 10631 10633 10634 10634 10634 10634
10581 10585 10588 10591 10593 10596 10598 10600 10601 10602 10603 10604 10605 10605 10605 10605 10607 10609 10611 10612 10614 10615 10617 10618 10619 10619 10620 10621 10621 10622 10623 10624 10625 10626 10625 10625 10626 10626 10626 10626 10626 10626 10626
10575 10578 10582 10586 10588 10591 10594 10596 10598 10601 10602 10603 10604 10605 10605 10605 10606 10607 10608 10610 10613 10614 10615 10617 10617 10618 10619 10619 10619 10619 10620 10620 10621 10621 10622 10621 10621 10620 10620 10619 10619 10619 10619
10565 10569 10573 10577 10582 10585 10588 10590 10592 10594 10596 10598 10601 10602 10604 10606 10607 10608 10609 10609 10611 10612 10613 10613 10614 10615 10616 10616 10617 10617 10617 10617 10616 10617 10616 10616 10616 10615 10615 10613 10613 10611 10609
10556 10559 10563 10568 10572 10575 10580 10582 10584 10587 10589 10591 10593 10595 10597 10599 10602 10603 10604 10605 10606 10607 10608 10609 10609 10610 10609 10608 10608 10608 10608 10609 10609 10609 10609 10608 10607 10605 10605 10603 10602 10600 10597